Defiance, OH

2:44 PM EDT on July 20, 2017 (GMT -0400)
Defiance Memorial

Weather History for KDFI - April, 2014

Change the Weather History Date:

Friday, April 18, 2014

  Actual Average Record
Temperature  
Mean Temperature 56 °F -  
Max Temperature 69 °F 61 °F 86 °F (2004)
Min Temperature 44 °F 37 °F 25 °F (1983)
Degree Days  
Heating Degree Days 8    
Growing Degree Days 6 (Base 50)    
Moisture  
Dew Point 37 °F    
Average Humidity 51    
Maximum Humidity 79    
Minimum Humidity 29    
Precipitation  
Precipitation 0.00 in - - ()
Sea Level Pressure  
Sea Level Pressure 30.26 in    
Wind  
Wind Speed 5 mph (WNW)    
Max Wind Speed 18 mph    
Max Gust Speed 24 mph    
Visibility 10 miles    
Events      
Averages and records for this station are not official NWS values.
T = Trace of Precipitation, MM = Missing Value Source: NWS Daily Summary

Daily Weather History Graph

Daily Weather History Graph

Search for Another Location

Airport or City:

Trip Planner

Search our weather history database for the weather conditions in past years. The results will help you decide how hot, cold, wet, or windy it might be!

Date:

Astronomy

Apr. 18, 2014 Rise Set
Actual Time 6:53 AM EDT 8:21 PM EDT
Civil Twilight 6:24 AM EDT 8:50 PM EDT
Nautical Twilight 5:49 AM EDT 9:25 PM EDT
Astronomical Twilight 5:13 AM EDT 10:02 PM EDT
Moon No Moon Rise 9:13 AM EDT (4/18)
Length of Visible Light 14h 25m
Length of Day
13h 27m
Waning Gibbous, 87% of the Moon is Illuminated
Apr 18
Waning Gibbous
Apr 22
Last Quarter
Apr 29
New
May 6
First Quarter
May 14
Full

Hourly Weather History & Observations

Time (EDT) Temp. Dew Point Humidity Pressure Visibility Wind Dir Wind Speed Gust Speed Precip Events Conditions
12:53 AM 50.0 °F 35.1 °F 57% 30.26 in 10.0 mi South 3.5 mph - N/A   Clear
1:53 AM 51.1 °F 35.1 °F 54% 30.25 in 10.0 mi South 3.5 mph - N/A   Clear
2:53 AM 48.9 °F 36.0 °F 61% 30.24 in 10.0 mi SW 4.6 mph - N/A   Clear
3:53 AM 46.0 °F 36.0 °F 68% 30.24 in 10.0 mi Calm Calm - N/A   Clear
4:53 AM 44.1 °F 35.1 °F 71% 30.25 in 10.0 mi Calm Calm - N/A   Clear
5:53 AM 44.1 °F 35.1 °F 71% 30.27 in 10.0 mi Calm Calm - N/A   Clear
6:53 AM 44.1 °F 35.1 °F 71% 30.28 in 10.0 mi Calm Calm - N/A   Partly Cloudy
7:53 AM 44.1 °F 37.9 °F 79% 30.29 in 10.0 mi Calm Calm - N/A   Clear
8:53 AM 53.1 °F 39.9 °F 61% 30.29 in 10.0 mi Calm Calm - N/A   Partly Cloudy
9:53 AM 57.9 °F 39.9 °F 51% 30.28 in 10.0 mi ENE 3.5 mph - N/A   Overcast
10:53 AM 60.1 °F 39.9 °F 47% 30.28 in 10.0 mi Variable 3.5 mph - N/A   Overcast
11:53 AM 62.1 °F 39.9 °F 44% 30.29 in 10.0 mi Variable 6.9 mph - N/A   Overcast
12:53 PM 64.0 °F 39.0 °F 40% 30.27 in 10.0 mi WSW 10.4 mph 20.7 mph N/A   Mostly Cloudy
1:53 PM 64.9 °F 39.0 °F 39% 30.27 in 10.0 mi WSW 9.2 mph - N/A   Mostly Cloudy
2:53 PM 64.9 °F 39.0 °F 39% 30.25 in 10.0 mi WNW 6.9 mph - N/A   Mostly Cloudy
3:53 PM 68.0 °F 39.0 °F 35% 30.25 in 10.0 mi NW 13.8 mph 20.7 mph N/A   Mostly Cloudy
4:53 PM 69.1 °F 39.9 °F 35% 30.23 in 10.0 mi NW 18.4 mph 24.2 mph N/A   Scattered Clouds
5:53 PM 68.0 °F 37.0 °F 32% 30.23 in 10.0 mi WNW 11.5 mph 19.6 mph N/A   Clear
6:53 PM 66.0 °F 33.1 °F 29% 30.22 in 10.0 mi WNW 6.9 mph - N/A   Clear
7:53 PM 62.1 °F 30.9 °F 31% 30.23 in 10.0 mi NW 10.4 mph - N/A   Clear
8:53 PM 57.9 °F 35.1 °F 42% 30.24 in 10.0 mi NNW 11.5 mph - N/A   Clear
9:53 PM 53.1 °F 34.0 °F 48% 30.27 in 10.0 mi NNW 6.9 mph - N/A   Clear
11:53 PM 48.0 °F 34.0 °F 58% 30.31 in 10.0 mi North 6.9 mph - N/A   Clear